Wind_Speed
14 14 13 15 14 13 11 10 8 7 6 5 5 5 5 4 4 3 3 3 2 2
15 16 16 16 14 13 13 11 9 7 6 5 5 5 5 4 4 2 1 2 1 1
16 16 15 14 15 15 13 11 8 7 7 5 4 4 5 3 2 3 2 1 2 2
16 15 14 14 13 13 11 9 7 6 6 4 3 4 4 3 2 2 1 2 3 5
17 17 15 15 14 13 11 8 7 6 7 6 4 3 4 5 3 2 2 2 4 5
17 16 16 15 13 12 11 9 6 7 5 4 4 3 2 4 4 2 2 2 3 4
17 17 17 16 15 13 9 9 7 6 4 5 3 3 3 1 2 3 2 2 3 3
21 18 18 14 10 10 10 11 9 8 6 4 4 4 3 1 3 2 1 2 2 2
19 18 15 16 15 13 14 13 11 9 7 4 5 1 1 2 2 1 2 2 3 2
24 19 16 15 15 17 18 15 12 11 9 7 4 1 2 3 0 2 3 4 4 3
25 22 20 19 17 17 14 12 11 9 7 6 5 4 3 1 2 2 4 4 3 4
25 22 23 22 20 16 14 11 9 8 7 6 6 3 1 1 3 3 5 3 3 4
21 19 19 20 19 15 13 12 11 8 7 7 6 2 1 1 2 1 3 4 2 4
20 22 20 17 14 14 11 11 9 7 6 5 6 2 1 1 2 3 6 6 7 6
Wind_Direction
215 210 210 202 196 199 197 195 195 203 210 204 170 171 145 139 136 121 105 104 90 67
209 203 199 196 194 189 188 197 193 198 211 202 181 179 156 164 148 140 112 119 327 294
206 199 200 197 188 186 188 186 190 182 195 197 190 178 151 181 143 129 107 76 269 281
199 195 188 189 191 182 181 171 174 177 176 188 194 174 142 143 169 163 205 265 269 282
190 189 181 182 177 173 165 164 177 180 172 180 185 205 172 171 200 198 249 254 260 268
187 183 178 173 169 163 158 155 180 165 171 171 188 187 190 197 200 237 247 255 255 260
182 181 173 175 169 168 164 166 173 176 183 199 196 177 206 224 223 225 244 257 248 259
184 184 179 189 199 203 194 186 188 176 174 199 199 208 222 204 244 254 250 247 265 257
195 188 207 211 190 177 187 191 188 180 184 196 210 267 151 246 284 285 281 239 260 258
200 203 210 201 194 189 194 192 190 187 184 195 224 282 240 252 351 272 252 244 237 201
207 209 200 190 192 190 193 195 190 187 183 196 227 253 246 294 326 262 250 239 232 201
218 202 192 191 190 195 190 180 185 184 192 192 209 242 259 11 305 231 238 230 226 202
207 197 188 180 173 180 182 187 175 184 187 191 188 223 68 79 335 212 177 144 98 158
200 186 176 175 181 180 175 168 173 178 174 175 170 206 285 174 264 168 144 152 145 123
Height
808 810 813 812 813 814 815 817 819 822 824 824 821 823 822 825 826 827 829 830 830 831
805 805 807 811 811 813 813 815 818 820 823 823 822 823 821 824 824 826 828 830 831 831
803 804 806 809 810 810 811 813 816 818 821 822 822 822 821 824 824 826 827 828 830 830
802 804 803 807 808 808 810 811 815 818 820 822 823 822 821 823 825 826 827 827 827 829
801 802 804 806 808 807 808 811 814 817 819 820 822 823 821 822 824 824 826 826 826 827
799 802 802 806 807 808 807 809 816 816 819 819 821 822 822 821 822 823 823 823 824 824
798 801 802 806 806 807 808 810 813 816 817 820 820 820 821 820 820 820 821 821 822 822
796 798 801 804 802 804 806 809 813 814 816 819 821 818 818 818 819 819 819 819 820 821
795 797 797 798 801 802 808 810 810 812 815 818 819 816 816 818 817 817 817 818 819 820
792 794 796 798 800 801 806 807 809 810 813 815 814 814 815 817 815 815 815 817 818 818
789 790 792 795 798 801 804 806 808 809 810 812 813 814 815 814 814 813 815 816 816 816
786 787 788 793 795 799 801 804 806 808 809 811 812 814 813 812 812 813 814 815 815 815
782 785 786 790 792 797 800 804 806 807 808 810 812 811 811 811 812 812 812 814 814 814
780 783 786 789 794 796 799 803 805 806 807 809 809 810 810 811 812 812 813 815 815 814